Погода в Панютино

Украина / Харьковская область     48°56′26″N   36°16′29″E
темп.,
°C
ветер,
м/с
пор.,
м/с
влажн.,
%
обл.,
%
осадки,
мм/ч
давл.,
гПа
погр.,
м
24 октября, вс
вс2400:00+7сз35575 0.0 102099
03:00+5сз33645 0.0 102134
06:00+4сз226743 0.0 102128
09:00+6сз3559100 0.0 1023230
12:00+9сз4646100 0.0 10221542
15:00+10сз563899 0.0 10221856
18:00+7сз365196 0.0 102398
21:00+7ссз586383 0.0 10251040
25 октября, пн
пн2500:00+6ссз5858100 0.0 10261030
03:00+4ссз59735 0.0 1027473
06:00+1ссз49815 0.0 1030279
09:00+3с47675 0.0 1031444
12:00+6ссв45414 0.0 10321145
15:00+8с44345 0.0 10311336
18:00+5ссв22425 0.0 103320
21:00+3св22480 0.0 103312
26 октября, вт
вт2600:00+2в11520 0.0 103410
03:00+1ююв11540 0.0 103410
06:000ююв11570 0.0 103410
09:00+3ююв22470 0.0 1034130
12:00+8ю33320 0.0 1033736
15:00+10ю23250 0.0 1031940
18:00+6ю22320 0.0 103110
21:00+4ююв33350 0.0 103119
27 октября, ср
ср2700:00+3ю34400 0.0 103048
03:00+2ю33432 0.0 103035
06:00+1ююв33450 0.0 102935
09:00+3ююв35390 0.0 1029173
12:00+9ююв45260 0.0 1027654
15:00+11ю34200 0.0 1025881
18:00+7ю2229100 0.0 102410
21:00+6ю2233100 0.0 102411
28 октября, чт
чт2800:00+5юз1137100 0.0 102410
03:00+4ссз224189 0.0 102310
06:00+3с334734 0.0 102423
09:00+5с35484 0.0 1025162
12:00+10ссв45414 0.0 1025902
15:00+11с45445 0.0 10241255
18:00+7ссв34584 0.0 102647
21:00+6с3373100 0.0 102625